AO-07 1 07530U 74089B 26208.03317207 -.00000025 00000-0 13563-3 0 9993 2 07530 101.9910 221.6954 0012582 56.3976 325.8911 12.53698752365518 UO-11 1 14781U 84021B 26208.02240936 .00001491 00000-0 15692-3 0 9991 2 14781 97.8087 173.1610 0008988 58.7973 301.4125 14.90877098263069 LO-19 1 20442U 90005G 26208.01974548 .00000124 00000-0 60864-4 0 9997 2 20442 98.8846 230.9213 0012686 89.7372 270.5265 14.34133627908105 AO-27 1 22825U 93061C 26208.13600653 .00000092 00000-0 52094-4 0 9995 2 22825 98.6859 275.5304 0008063 351.2303 8.8738 14.30951631712711 FO-29 1 24278U 96046B 26208.08678619 -.00000023 00000-0 13711-4 0 9994 2 24278 98.5210 51.4894 0349765 353.0982 6.5411 13.53275862478564 GO-32 1 25397U 98043D 26207.96231280 .00000064 00000-0 47749-4 0 9993 2 25397 99.0095 201.7290 0002365 96.2646 263.8801 14.24435298456993 ISS 1 25544U 98067A 26208.18492855 .00011370 00000-0 21265-3 0 9991 2 25544 51.6319 102.1568 0006995 342.0319 18.0422 15.49199954577957 NO-44 1 26931U 01043C 26208.11069641 .00000127 00000-0 78138-4 0 9996 2 26931 67.0508 141.0112 0005815 267.5872 92.4564 14.31969059296166 SO-50 1 27607U 02058C 26207.80450946 .00001274 00000-0 16689-3 0 9997 2 27607 64.5528 6.4018 0074176 255.1416 104.1466 14.83120707270332 CO-55 1 27844U 03031E 26208.00796652 .00000310 00000-0 15310-3 0 9992 2 27844 98.6748 216.0679 0010791 72.3188 287.9168 14.24357848197348 RS-22 1 27939U 03042A 26208.28819737 .00000429 00000-0 74266-4 0 9996 2 27939 98.3480 33.7840 0012069 136.2939 345.4625 14.73530869221459 CO-65 1 32785U 08021C 26208.21733517 .00005125 00000-0 32122-3 0 9999 2 32785 97.8302 190.4851 0006925 247.9628 112.0865 15.09796933991233 CO-66 1 32791U 08021J 26207.94192727 .00019386 00000-0 59043-3 0 9992 2 32791 97.7535 207.7796 0004232 135.3246 224.8337 15.34026785993385 RS-30 1 32953U 08025A 26208.33750898 .00000052 00000-0 30327-3 0 9993 2 32953 82.5066 330.4652 0018979 221.2543 138.7104 12.43181412824686 SRMSAT 1 37841U 11058D 26208.01695337 .00000371 00000-0 57374-4 0 9991 2 37841 19.9703 178.3861 0011523 282.2686 129.1795 14.11583108763455 ZACUBE-1 1 39417U 13066B 26208.13133763 .00004285 00000-0 33033-3 0 9999 2 39417 97.7984 170.6597 0043953 117.1114 243.4603 15.01394529686725 Delfi-N3xt 1 39428U 13066N 26208.19547517 .00008701 00000-0 74640-3 0 9999 2 39428 97.8316 128.4746 0075945 74.0243 286.9327 14.95497173680601 GOMX-1 1 39430U 13066Q 26208.29095484 .00001214 00000-0 18854-3 0 9991 2 39430 97.6466 46.2239 0127222 309.1452 49.8503 14.69566935675804 LO-74 1 39440U 13066AA 26208.31781549 .00003125 00000-0 28985-3 0 9998 2 39440 97.8911 157.4785 0055677 254.0267 105.4814 14.94031386682985 AO-73 1 39444U 13066AE 26208.15531135 .00008432 00000-0 51469-3 0 9997 2 39444 97.8291 180.4548 0037761 69.0608 291.4655 15.09970203685697 DTUSAT-2 1 40030U 14033W 26207.99204239 .00007114 00000-0 37927-3 0 9997 2 40030 98.0882 208.2641 0009767 98.6017 261.6321 15.15486135658714 LILACSAT-2 1 40908U 15049K 26208.30890269 .00018405 00000-0 29883-3 0 9996 2 40908 97.4623 246.7032 0008682 106.3681 253.8527 15.52742943601974 Lapan A3 1 41603U 16040E 26208.26341608 .00003196 00000-0 10146-3 0 9997 2 41603 97.1510 203.1035 0008747 223.4444 136.6111 15.33340762560950 CAS-2T 1 41847U 16066G 26208.20116874 .00000766 00000-0 11618-3 0 9999 2 41847 98.3807 283.4795 0341551 8.3673 352.3018 14.44787241510577 TechnoSat 1 42829U 17042E 26208.00669635 .00002452 00000-0 17579-3 0 9997 2 42829 97.4317 4.1649 0016484 322.0542 37.9522 15.05160742492692 AO-91 1 43017U 17073E 26208.08886716 .00007589 00000-0 32803-3 0 9993 2 43017 97.4658 74.4910 0148833 190.1098 169.7132 15.13208012471426 S-Net D 1 43186U 18014G 26207.97672613 .00004610 00000-0 23661-3 0 9996 2 43186 97.5320 112.5202 0006471 232.4057 127.6589 15.17009025464792 S-Net B 1 43187U 18014H 26208.12089273 .00004654 00000-0 23896-3 0 9997 2 43187 97.5326 112.6511 0007230 227.3329 132.7296 15.16980337464810 S-Net A 1 43188U 18014J 26207.71154239 .00004799 00000-0 24608-3 0 9999 2 43188 97.5337 112.4607 0007069 229.4680 130.5938 15.17015485464756 S-Net C 1 43189U 18014K 26207.72921394 .00004993 00000-0 25616-3 0 9991 2 43189 97.5355 112.5591 0008564 222.4856 137.5716 15.16968134463307 Ten-Koh 1 43677U 18084G 26208.13474754 .00002192 00000-0 16736-3 0 9991 2 43677 98.0768 42.1829 0009074 357.0211 3.0957 15.03093710422160 PO-101 1 43678U 18084H 26208.24706203 .00001580 00000-0 13013-3 0 9996 2 43678 98.1221 46.2132 0012010 46.5894 313.6327 15.00599648422225 QO-100 1 43700U 18090A 26208.09280969 .00000000 00000-0 00000-0 0 9993 2 43700 0.0281 73.2930 0002484 83.8862 206.7915 1.00269706 28072 MinXSS-2 1 43758U 18099A 26208.22751416 .00041841 00000-0 75364-3 0 9996 2 43758 97.4515 285.7601 0008652 123.0796 237.1287 15.49648947420326 AO-95 1 43770U 18099N 26208.11357203 .00012081 00000-0 45114-3 0 9998 2 43770 97.4370 268.2282 0008376 194.4356 165.6646 15.27498002419319 SNUSat 2 1 43782U 18099AA 26208.10583905 .00008833 00000-0 38456-3 0 9991 2 43782 97.4040 260.8851 0011305 148.6200 211.5713 15.22402099419100 SnugLite 1 43784U 18099AC 26208.10152754 .00012439 00000-0 45780-3 0 9992 2 43784 97.3851 262.0046 0004400 131.2175 228.9444 15.27989649419411 ITASat 1 1 43786U 18099AE 26208.13183021 .00006670 00000-0 31667-3 0 9997 2 43786 97.4009 258.8525 0011802 204.8244 155.2425 15.19511055418976 EAGLET 1 1 43790U 18099AJ 26208.12905931 .00004076 00000-0 23288-3 0 9991 2 43790 97.4213 256.7408 0010541 198.7290 161.3555 15.13211731418374 ESEO 1 43792U 18099AL 26208.09107481 .00001495 00000-0 11125-3 0 9992 2 43792 97.3961 243.7693 0011645 187.5284 172.5770 15.04358111417806 JO-97 1 43803U 18099AX 26207.61917303 .00018958 00000-0 56213-3 0 9993 2 43803 97.4110 270.6174 0007340 124.9805 235.2128 15.34854465419677 Suomi 100 1 43804U 18099AY 26208.13109425 .00014100 00000-0 49760-3 0 9994 2 43804 97.4171 268.3937 0011350 134.6311 225.5857 15.29289817419524 ISAT 1 43879U 18111D 26207.82660149 .00138558 00000-0 97950-3 0 9999 2 43879 97.5842 146.3334 0008926 123.6002 236.6115 15.73547295417386 UWE-4 1 43880U 18111E 26207.79314054 .00034203 00000-0 64292-3 0 9993 2 43880 97.5832 138.0781 0008090 156.3325 203.8298 15.48475040416909 Sparrow 1 43881U 18111F 26207.79487216 .00382160 57615-4 11751-2 0 9992 2 43881 97.6058 152.8609 0009892 142.2872 217.9096 15.91719135417633 Prox-1 1 44339U 19036A 26208.21012468 .00012198 00000-0 11607-2 0 9992 2 44339 23.9924 206.7114 0006469 137.5743 222.5257 14.91475309379456 Taurus 1 1 44530U 19059C 26208.27215700 .00004938 00000-0 78615-3 0 9996 2 44530 98.6444 15.6057 0008837 177.5846 182.5404 14.72475015364543 TO-108 1 44881U 19093C 26208.29685194 .00001240 00000-0 14579-3 0 9995 2 44881 97.7518 279.5473 0012490 320.6053 39.4254 14.86577562357379 RS-44 1 44909U 19096E 26208.26799598 -.00000004 00000-0 -66215-4 0 9994 2 44909 82.5246 313.0750 0218249 50.8858 311.1425 12.79748797307473 SALSAT 1 46495U 20068K 26207.97313825 .00007917 00000-0 27242-3 0 9993 2 46495 97.8862 213.4781 0010474 153.1467 207.0317 15.30316182321443 CSS (TIANHE-1) 1 48274U 21035A 26205.70067244 .00011455 00000-0 15064-3 0 9996 2 48274 41.4690 94.2105 0001496 308.5106 51.5598 15.58352000299029 CUTE 1 49263U 21088D 26197.83813593 .08921004 25505-5 41832-3 0 9995 2 49263 97.3907 300.4441 0014216 277.7997 82.1689 16.41647044267308 TeikyoSat 4 1 49396U 21102B 26208.02480781 .00002216 00000-0 14133-3 0 9991 2 49396 97.3661 235.9594 0012887 149.1088 211.0902 15.09634687258738 Z-Sat 1 49399U 21102E 26208.33153892 .00004296 00000-0 21036-3 0 9998 2 49399 97.3314 242.4384 0018419 105.7803 254.5465 15.18546074259533 KOSEN 1 1 49402U 21102H 26208.04680001 .00008110 00000-0 30435-3 0 9990 2 49402 97.3170 249.4378 0015125 70.6784 289.6090 15.27365220260107 HO-113 1 50466U 21131B 26208.31724214 .00000174 00000-0 67420-4 0 9996 2 50466 98.4988 300.4904 0003750 356.8998 3.2167 14.41389807240899 SNUGLITE 2 1 52899U 22065F 26207.93510861 .00001039 00000-0 20556-3 0 9992 2 52899 98.2251 352.7073 0006200 256.3035 103.7477 14.64412659216810 UmKA 1 (RS40S) 1 57172U 23091G 26208.28954511 .00006080 00000-0 27497-3 0 9996 2 57172 97.5031 266.8378 0011804 347.3661 12.7277 15.21236740170109 CubeBel-2 (EU11S) 1 57175U 23091K 26208.28456924 .00012436 00000-0 42921-3 0 9995 2 57175 97.5032 271.8799 0008296 342.1618 17.9329 15.30077668170435 RS-38S 1 57189U 23091Z 26208.26117913 .00017409 00000-0 47932-3 0 9992 2 57189 97.5075 278.5786 0005203 284.9844 75.0824 15.37211755170840 SONATE-2 1 59112U 24043Q 26208.22316401 .00047291 00000-0 54648-3 0 9991 2 59112 97.5561 1.1774 0006073 64.9454 295.2433 15.61737721134131 GRBBeta 1 60237U 24128C 26208.10419226 .00004059 00000-0 28117-3 0 9998 2 60237 61.9901 76.1921 0035374 143.3980 216.9540 15.06880599112284 Curium One 1 60242U 24128H 26208.16035348 .00008224 00000-0 46860-3 0 9992 2 60242 61.9787 64.1420 0034875 138.9696 221.4034 15.13018686112504 ROBUSTA-3A 1 60243U 24128J 26208.08200797 .00008696 00000-0 50633-3 0 9992 2 60243 61.9866 67.1152 0036401 136.6182 223.7789 15.12138823112451 CatSat 1 60246U 24125J 26207.11243279 .00081773 00000-0 86728-3 0 9998 2 60246 97.2048 60.2543 0018513 43.9572 316.3156 15.63620476113468 HYPERVIEW-1G (RS66S) 1 61772U 24199AP 26208.27740255 -.00130652 79344-5 -40843-3 0 9991 2 61772 97.2757 90.4143 0008069 123.2567 236.9481 15.91274814141014 AO-123 1 61781U 24199AY 26208.29665388 .00007891 00000-0 22518-3 0 9999 2 61781 97.2950 76.6096 0014331 157.4238 202.7640 15.36207052140088 JINJUSat 1B 1 63210U 25052A 26208.19507825 .00017840 00000-0 53233-3 0 9990 2 63210 97.3957 105.0277 0001566 346.7410 13.3792 15.34692694 76231 NUSHSAT 1 1 63211U 25052B 26207.97521185 .00021456 00000-0 58530-3 0 9994 2 63211 97.3931 105.5183 0001510 12.0769 348.0511 15.37464619 76250 TEVEL2-4 1 63213U 25052D 26207.67927736 .00021667 00000-0 62069-3 0 9991 2 63213 97.3851 104.1632 0002209 30.9337 329.2037 15.35934669 76173 TEVEL2-5 1 63214U 25052E 26208.16056557 .00019053 00000-0 54932-3 0 9997 2 63214 97.3850 104.5818 0002240 33.2867 326.8517 15.35758818 76246 TEVEL2-6 1 63215U 25052F 26207.65254786 .00020947 00000-0 60462-3 0 9994 2 63215 97.3858 104.0575 0002335 33.9129 326.2263 15.35703414 76168 TEVEL2-1 1 63217U 25052H 26208.15219744 .00018726 00000-0 55067-3 0 9994 2 63217 97.3828 104.1332 0003011 34.1384 326.0052 15.35139258 76227 TEVEL2-3 1 63218U 25052J 26208.14526186 .00018924 00000-0 55531-3 0 9991 2 63218 97.3834 104.1540 0002801 39.3627 320.7820 15.35204462 76223 TEVEL2-2 1 63219U 25052K 26208.15223727 .00018754 00000-0 55128-3 0 9991 2 63219 97.3829 104.1363 0002979 35.0050 325.1389 15.35150730 76227 TEVEL2-9 1 63237U 25052AD 26208.18259084 .00017672 00000-0 55464-3 0 9990 2 63237 97.3894 103.4524 0006301 22.3508 337.8008 15.33071084 76152 TEVEL2-7 1 63238U 25052AE 26208.16628216 .00016860 00000-0 53474-3 0 9993 2 63238 97.3891 103.3347 0006414 22.3817 337.7704 15.32744834 76140 TEVEL2-8 1 63239U 25052AF 26208.17491405 .00017010 00000-0 53969-3 0 9990 2 63239 97.3894 103.3189 0006412 22.4286 337.7235 15.32731368 76144 SPIRONE 1 66657U 25274H 26208.24961355 .00001919 00000-0 18664-3 0 9991 2 66657 97.7469 136.9710 0010524 237.3421 122.6784 14.93694262 36202 K-HERO 1 66660U 25274L 26208.24318831 .00001771 00000-0 17091-3 0 9999 2 66660 97.7479 137.1549 0012336 242.8636 117.1327 14.94099521 36213 SNUGLITE-III DURI 1 66661U 25274M 26208.23011249 .00001925 00000-0 18515-3 0 9995 2 66661 97.7475 137.1630 0012974 243.9724 116.0160 14.94123662 36216 SAKHACUBE-CHOLBON 1 67290U 25313AU 26208.18003534 .00009467 00000-0 37552-3 0 9991 2 67290 97.3921 282.7288 0008643 204.1620 155.9214 15.25549521 32078 RS95S (QMR-KWT-2) 1 67291U 25313AV 26207.93104400 .00013941 00000-0 52398-3 0 9995 2 67291 97.3921 282.7493 0008454 201.7643 158.3238 15.27246072 32053 Ten-Koh2 1 68261U 25241B 26207.48913825 .00007213 00000-0 30453-3 0 9995 2 68261 51.6557 132.5239 0004880 268.3089 91.7330 15.24287706 20901 JACK-002 1 68417U 26067B 26208.13106787 .00006583 00000-0 31013-3 0 9991 2 68417 97.4582 166.2459 0003822 113.7346 246.4290 15.19840690 18016 DISCO 2 1 68431U 26067R 26207.82995724 .00008699 00000-0 41138-3 0 9998 2 68431 97.4617 165.9388 0001965 152.6146 207.5193 15.19620366 17963 HADES-SA (SpinnyONE) 1 68446U 26067AG 26207.33323031 .00019479 00000-0 89733-3 0 9997 2 68446 97.4412 165.0825 0004368 317.3995 42.6901 15.20319308 17879 PARUS-6U1 1 68456U 26067AS 26207.87861407 .00005743 00000-0 28655-3 0 9996 2 68456 97.4573 165.6477 0003627 295.6055 64.4804 15.17900232 17950 SAL-E 1 68458U 26067AU 26207.86583761 .00007648 00000-0 37618-3 0 9996 2 68458 97.4499 165.5506 0003905 311.1756 48.9141 15.18286015 17950 FSI-SAT 2 1 68792U 26088A 26207.92627544 .00003675 00000-0 24831-3 0 9994 2 68792 97.5110 356.2062 0013445 337.8457 22.2188 15.07116495 14271 OrigamiSat 2 1 68795U 26088D 26207.94458982 .00011923 00000-0 74478-3 0 9994 2 68795 97.5110 356.4908 0013421 303.9437 56.0515 15.09544691 14297 ARICA 2 1 68796U 26088E 26207.95920376 .00004907 00000-0 31615-3 0 9997 2 68796 97.5104 356.4561 0014278 305.0708 54.9181 15.08706359 14297 WASEDA-SAT-ZERO-II 1 68797U 26088F 26208.27921957 .00006173 00000-0 39310-3 0 9997 2 68797 97.5103 356.7932 0013892 303.4202 56.5698 15.09042535 14341 MANGARO-II-Piscus 1 68798U 26088G 26207.93634446 .00003493 00000-0 22400-3 0 9998 2 68798 97.5113 356.4962 0017492 307.8882 52.0765 15.09034727 14299 IO-86 1 40931U 25360.30710720 .00000000 00000-0 12800-3 0 00 2 40931 6.0006 332.5373 0012733 338.8432 8.1437 14.79075515 01 LILIUM-4 1 71922C 26067AC 26089.50133053 -.00014632 00000 0 -74472-3 0 04 2 71922 97.4497 49.1617 0004341 5.9603 355.7042 15.16896692 16